World > North America > United States > Virginia > Ford  

Ford, VA Hourly Weather Updates

Feedback E-mail the Weather

Quick Clicks

Ford, VA Weather Maps

°F °C°F °C
Ford Weather Map
UTC Time: 7/21/2024, 13:11
Your Time:

Ford, VA Regional Weather

Expires:202407211300;;043192
ASUS41 KAKQ 211213
RWRAKQ

REGIONAL WEATHER ROUNDUP
NATIONAL WEATHER SERVICE WAKEFIELD VA
800 AM EDT SUN JUL 21 2024

Note: "fair" indicates few or no clouds below 12,000 feet with no
significant weather and/or obstructions to visibility. * = Denotes
station may not report precipitation (e.g., rain,snow,etc.),
thunder or fog.


VAZ048-049-060>072-079>083-211300-
CENTRAL AND SOUTH CENTRAL VIRGINIA
  
CITY           SKY/WX    TMP DP  RH WIND       PRES   REMARKS
RICHMOND       PTSUNNY   73  71  93 CALM      30.06R                  
CHESTERFIELD*    N/A     69  32  25 CALM      30.07R                  
PETERSBURG*    MOSUNNY   70  69  96 CALM      30.08R                  
HANOVER        MOSUNNY   71  69  93 CALM      30.07R                  
TAPPAHANNOCK*  MOSUNNY   69  69 100 CALM      30.07R                  
QUINTON*       CLOUDY    70  70 100 CALM      30.07R VSB 1/4          
CHARLOTTSVILLE SUNNY     73  69  87 CALM      30.06R                  
GORDONSVILLE*  CLOUDY    69  69  99 CALM      30.06R                  
ORANGE*        FOG       68  68 100 CALM      30.08R VSB 1/2          
LOUISA*        CLOUDY    70  70  99 CALM      30.08R FOG              
BUMPASS*       CLOUDY    69  69 100 CALM      30.07R                  
FARMVILLE*     MOSUNNY   70  70 100 CALM      30.06S                  
CREWE*         MOSUNNY   71  68  91 CALM      30.07R                  
FORT PICKETT*  MOSUNNY   74  73  96 CALM      30.06R                  
CHASE CITY*    MOSUNNY   71  71 100 CALM      30.08S                  
CLARKSVILLE*   PTSUNNY   72  72 100 CALM      30.08R                  
SOUTH HILL*    PTSUNNY   73  73  99 CALM      30.13S                  
LAWRENCEVILLE* PTSUNNY   72  71  97 CALM      30.09R                  
EMPORIA*       PTSUNNY   71  70  98 CALM      30.09S                  
$$


SKY/WX - Weather  TMP - Temperature  DP - Dew Point  RH - Humidity
WIND - Wind Direction/Speed PRES - Barometric Pressure VSB - Visibility
WCI - Wind Chill Index E13G22 Wind - East Wind 13 mph/Gusts of 22 mph

Trending Headlines

Trending Entertainment Headlines

Ford Radar Loop

Use the map search tool if you want to place a location marker on the radar map...

Ford Quick Facts

National Two Day Weather Forecast


E-mail the Ford Weather Forecast

Voice your opinion or tell us about page issues...